PRAETORIAN SDA_608

Last updated on Wed Sep 09 2026 00:03:45 GMT+0000 (Coordinated Universal Time)

1 65571U 25203G 26251.51374149 .00000054 00000+0 38351-4 0 9998 2 65571 81.2991 293.6734 0005516 343.9744 16.1237 13.83823940 50210
UTC large
Height (km)
Speed (km/s)
/
Latitude / Longitude
Inclination (degrees)
Orbital Period (minutes)
Azimuth
Elevation
Range (km)
Doppler Factor

Next 0 passes for location: London (51.5072 / 0.1276)

No passes found over London.
PRAETORIAN SDA_608